708  
ASUS41 KRLX 151310  
RWRRLX  
REGIONAL WEATHER ROUNDUP  
NATIONAL WEATHER SERVICE CHARLESTON WV  
900 AM EDT WED AUG 15 2018  
 
NOTE: "FAIR" INDICATES FEW OR NO CLOUDS BELOW 12,000 FEET WITH NO  
SIGNIFICANT WEATHER AND/OR S TO VISIBILITY
.  
 
WVZ003-151400-  
NORTHERN PANHANDLE OF WEST VIRGINIA  
 
CITY SKY/WX TMP DP RH WIND PRES REMARKS
 
WHEELING FAIR 69 65 86 S3 30.08R  

 
 
WVZ009-151400-  
NORTHWEST WEST VIRGINIA  
 
CITY SKY/WX TMP DP RH WIND PRES REMARKS
 
PARKERSBURG FAIR 67 64 90 CALM 30.12R  

 
 
WVZ006-151400-  
WESTERN WEST VIRGINIA  
 
CITY SKY/WX TMP DP RH WIND PRES REMARKS
 
HUNTINGTON FAIR 69 66 90 S3 30.09R  

 
 
WVZ015-151400-  
WEST CENTRAL WEST VIRGINIA  
 
CITY SKY/WX TMP DP RH WIND PRES REMARKS
 
CHARLESTON FAIR 68 65 90 CALM 30.10R  

 
 
WVZ022-031-151400-  
NORTH CENTRAL WEST VIRGINIA  
 
CITY SKY/WX TMP DP RH WIND PRES REMARKS
 
MORGANTOWN FAIR 69 65 86 S6 30.11R  
CLARKSBURG FAIR 71 64 78 S5 30.11R  
BUCKHANNON FAIR 68 64 88 S3 30.13R  

 
 
WVZ025-035-042-045-151400-  
SOUTHERN WEST VIRGINIA  
 
CITY SKY/WX TMP DP RH WIND PRES REMARKS
 
BECKLEY N/A 69 61 75 VRB3 30.18R  
LOGAN FAIR 68 66 94 CALM 30.13R  
PINEVILLE PTSUNNY 64 62 96 MISG 30.20S  
BLUEFIELD FAIR 67 61 81 W3 30.20R  
LEWISBURG FOG 60 60 99 CALM 30.18S VSB 3/4  

 
 
WVZ047-151400-  
NORTHERN MOUNTAINS OF WEST VIRGINIA  
 
CITY SKY/WX TMP DP RH WIND PRES REMARKS
 
ELKINS FAIR 64 61 90 CALM 30.16R  

 
 
WVZ052-151400-  
EASTERN PANHANDLE OF WEST VIRGINIA  
 
CITY SKY/WX TMP DP RH WIND PRES REMARKS
 
MARTINSBURG FAIR 72 68 87 SE5 30.03R  
PETERSBURG FAIR 67 64 89 CALM 30.09R  

 
 
SOUTHEAST OHIO/NORTHEAST KENTUCKY  
 
CITY SKY/WX TMP DP RH WIND PRES REMARKS
 
ATHENS FAIR 70 68 96 S3 30.08R  
ASHLAND FAIR 71 67 87 CALM 30.09R  

 
 
 
CLICK HERE TO GO TO PREVIOUS BULLETINS.

The Nexlab WV Page
The Nexlab OH Page
The Nexlab KY Page
The Nexlab VA Page Main Text Page